This demonstration page uses our WeatherBlox Daily Observations layout. Learn more.

39.92423, -83.80882

Hourly Observations for September 29, 2018

Temp ( °F °C ) Dew Point ( °F °C ) Humidity (%) Winds ( mph kmh ) Pressure ( in mb ) Visibility ( mi km ) Precip ( " mm )
12:56 am 00:56 Clear 55 12.8 51 10.6 87 87 N 9 15 30.23 1024 10 16.0934 0 0
1:56 am 01:56 Clear 53 11.7 50 10 89 89 NE 5 7 30.22 1024 10 16.0934 0 0
2:56 am 02:56 Mostly Clear 52 11.1 50 10 93 93 N 3 6 30.24 1024 10 16.0934 0 0
3:56 am 03:56 Mostly Clear 50 10 49 9.4 96 96 N 5 7 30.26 1025 10 16.0934 0 0
4:56 am 04:56 Mostly Cloudy 49 9.4 48 8.9 97 97 N 3 6 30.27 1025 10 16.0934 0 0
5:56 am 05:56 Mostly Cloudy 50 10 48 8.9 93 93 N 6 9 30.28 1026 10 16.0934 0 0
6:56 am 06:56 Clear 48 8.9 47 8.3 96 96 N 5 7 30.3 1026 10 16.0934 0 0
7:56 am 07:56 Sunny 48 8.9 47 8.3 96 96 N 3 6 30.32 1027 10 16.0934 0 0
8:56 am 08:56 Sunny 52 11.1 48 8.9 86 86 N 7 11 30.32 1027 10 16.0934 0 0
9:56 am 09:56 Sunny 55 12.8 47 8.3 74 74 NNE 8 13 30.34 1027 10 16.0934 0 0
10:56 am 10:56 Sunny 58 14.4 47 8.3 67 67 NE 8 13 30.35 1028 10 16.0934 0 0
11:56 am 11:56 Sunny 61 16.1 49 9.4 65 65 NNE 3 6 30.33 1027 10 16.0934 0 0
12:56 pm 12:56 Sunny 63 17.2 48 8.9 58 58 VRB 3 6 30.32 1027 10 16.0934 0 0
1:56 pm 13:56 Sunny 66 18.9 49 9.4 54 54 Calm 30.31 1027 10 16.0934 0 0
2:56 pm 14:56 Sunny 67 19.4 50 10 55 55 Calm 30.29 1026 10 16.0934 0 0
3:56 pm 15:56 Sunny 68 20 49 9.4 51 51 Calm 30.28 1026 10 16.0934 0 0
4:56 pm 16:56 Sunny 68 20 51 10.6 55 55 VRB 5 7 30.28 1025 10 16.0934 0 0
5:56 pm 17:56 Mostly Cloudy 66 18.9 51 10.6 59 59 NNE 6 9 30.27 1025 10 16.0934 0 0
6:56 pm 18:56 Cloudy 65 18.3 52 11.1 63 63 Calm 30.27 1025 10 16.0934 0 0
7:56 pm 19:56 Cloudy 63 17.2 56 13.3 78 78 W 3 6 30.28 1026 10 16.0934 0 0
8:56 pm 20:56 Cloudy 61 16.1 56 13.3 84 84 Calm 30.29 1026 10 16.0934 0 0
9:56 pm 21:56 Cloudy 58 14.4 54 12.2 87 87 ESE 3 6 30.29 1026 10 16.0934 0 0
10:56 pm 22:56 Clear 56 13.3 52 11.1 87 87 ESE 6 9 30.27 1025 10 16.0934 0 0
11:56 pm 23:56 Clear 54 12.2 51 10.6 90 90 E 3 6 30.27 1025 10 16.0934 0 0

Powered by AerisWeather